Weather Roundup
Issued by NWS

Home | Current Version | Previous Version | Text Only | Print | Product List | Glossary On
Versions: 1 2 3 4 5 6 7 8 9 10 11 12 13 14 15 16 17 18 19 20 21 22 23 24 25 26 27 28 29 30 31 32 33 34 35 36 37 38 39 40 41 42 43 44 45 46 47 48 49 50
000
NZUS93 KARX 261559
HRRWXR

CURRENT HOURLY OBSERVATIONS ACROSS
MUCH OF THE UPPER MISSISSIPPI VALLEY
NATIONAL WEATHER SERVICE LA CROSSE WI
1000 AM CST MON JAN 26 2015


...SOUTHEAST MINNESOTA...


CITY           SKY/WX    TMP DP  RH WIND       PRES   REMARKS
ROCHESTER      CLOUDY    30  27  88 S16       29.71F WCI  19
ROCHESTER/MAYO CLOUDY    30  28  92 SW7       29.72F WCI  24
WINONA         CLOUDY    30  27  86 S6        29.75F WCI  24
AUSTIN         CLOUDY    34  30  86 SW8       29.72F WCI  27
ALBERT LEA     SUNNY     36  34  93 W7        29.72R WCI  30
DODGE CENTER   CLOUDY    32  30  93 SW14      29.69F WCI  22
PRESTON        CLOUDY    25  24  94 S14       29.73F FOG     WCI  13
OWATONNA       CLOUDY    36  30  80 SW10      29.71S WCI  28
FARIBAULT      CLOUDY    36  30  80 W8        29.72R WCI  29
$$

...ELSEWHERE IN MINNESOTA...


CITY           SKY/WX    TMP DP  RH WIND       PRES   REMARKS
MINNEAPOLIS    PTSUNNY   34  29  82 SW8       29.69F WCI  27
INTNL FALLS    CLOUDY    29  26  89 W6        29.59R WCI  23
DULUTH         LGT SNOW  22  19  89 S7        29.61S VSB 3/4 WCI  13
RED WING       CLOUDY    32  28  86 CALM      29.71S
REDWOOD FALLS  SUNNY     40  33  76 W14       29.76R WCI  32
MANKATO        SUNNY     39  30  70 NW18G26   29.73R WCI  30
WORTHINGTON    SUNNY     37  30  75 NW17      29.80R WCI  28
FAIRMONT       SUNNY     39  30  70 NW15      29.75R WCI  31
$$

...SOUTHWEST WISCONSIN...


CITY           SKY/WX    TMP DP  RH WIND       PRES   REMARKS
LA CROSSE      CLOUDY    24  19  81 S10       29.79F WCI  14
PRAIRIE DU CHI CLOUDY    24  19  81 SE7       29.84F WCI  16
BOSCOBEL       CLOUDY    23  17  78 S3        29.86F
LONE ROCK      NOT AVBL
PLATTEVILLE    CLOUDY    19  17  90 SE10      29.86F WCI   8
FORT MC COY    FLURRIES  22  18  85 S5        29.80F WCI  15
VIROQUA        CLOUDY    20  19  93 S13       29.78F WCI   8
WIS DELLS      NOT AVBL
$$

...ELSEWHERE IN WISCONSIN...


CITY           SKY/WX    TMP DP  RH WIND       PRES   REMARKS
MILWAUKEE      PTSUNNY   24  15  68 S8        29.93F WCI  15
MADISON        LGT SNOW  19  15  84 S10       29.87F VSB 1   WCI   7
GREEN BAY      CLOUDY    21  15  78 S7        29.89F WCI  12
EAU CLAIRE     CLOUDY    22  19  89 SE7       29.73S FOG     WCI  13
BLACK RVR FLS  FLURRIES  21  18  86 S5        29.78F WCI  15
MEDFORD        LGT SNOW  16  13  88 SE10      29.73F WCI   4
WAUSAU         LGT SNOW  16  12  84 SE12      29.77F FOG     WCI   3
WIS RAPIDS     LGT SNOW  18  13  80 SE8       29.82F WCI   8
MARSHFIELD     LGT SNOW  18  14  84 SE14      29.76F FOG     WCI   4
RICE LAKE      LGT SNOW  22  21  93 SE7       29.72R WCI  14
$$

...NORTHEAST IOWA...


CITY           SKY/WX    TMP DP  RH WIND       PRES   REMARKS
DECORAH        CLOUDY    25  23  93 S10       29.77S WCI  15
MASON CITY     MOSUNNY   35  32  88 W14       29.76R WCI  26
CHARLES CITY   CLOUDY    30  30 100 S13       29.77S WCI  20
OELWEIN        CLOUDY    25  23  93 S16G23    29.78F WCI  12
$$

...ELSEWHERE IN IOWA...


CITY           SKY/WX    TMP DP  RH WIND       PRES   REMARKS
DES MOINES     CLOUDY    38  30  73 W16       29.81F WCI  29
IOWA CITY      LGT SNOW  26  24  92 SE7       29.91R FOG     WCI  18
FORT DODGE     PTSUNNY   37  32  81 W12       29.80S WCI  30
$$

...NORTHERN ILLINOIS...


CITY           SKY/WX    TMP DP  RH WIND       PRES   REMARKS
CHICAGO-OHARE  CLOUDY    23  15  71 SW3       29.94F
CHICAGO-MIDWAY CLOUDY    25  18  74 VRB3      29.96S
MOLINE         SNOW      22  20  92 E3        29.94R VSB 1/2
ROCKFORD       CLOUDY    20  14  77 S6        29.94F WCI  12
PEORIA         LGT SNOW  23  19  85 S8        29.96F VSB 1   WCI  14
$$

NOTE: "FAIR" INDICATES FEW OR NO CLOUDS BELOW 12,000 FEET WITH NO
SIGNIFICANT WEATHER AND/OR OBSTRUCTIONS TO VISIBILITY. WIND
SPEEDS ARE IN MILES-PER-HOUR.



USA.gov is the U.S. government's official web portal to all federal, state and local government web resources and services.